iso_date,epoch_date,Year,Hour,Min,DOY,POS_DOY,Lat,Lon,BP,Ts,Ta,has_bp,has_ts,has_ta,BuoyID,Buoy_Type,Buoy_Owner,Logistics,Hemisphere
2020-07-07T07:58:56Z,1594108737,2020,7,59,189.3326,189.3326,79.30027,4.56494,-999.00,-999.00,-999.0,no,no,no,300534060555870,NOMAD,AWI/USIABP,MOSAiC,North
2020-07-07T09:00:00Z,1594112400,2020,9,0,189.375,189.375,79.32643,4.69826,-999.00,-999.00,-999.0,no,no,no,300534060555870,NOMAD,AWI/USIABP,MOSAiC,North
2020-07-07T10:00:02Z,1594116003,2020,10,0,189.4167,189.4167,79.32643,4.69829,-999.00,-999.00,-999.0,no,no,no,300534060555870,NOMAD,AWI/USIABP,MOSAiC,North
2020-07-07T10:09:59Z,1594116599,2020,10,10,189.4236,189.4236,79.35253,4.8309,-999.00,-999.00,-999.0,no,no,no,300534060555870,NOMAD,AWI/USIABP,MOSAiC,North
2020-07-07T10:20:03Z,1594117204,2020,10,20,189.4306,189.4306,79.35238,4.83219,-999.00,-999.00,-999.0,no,no,no,300534060555870,NOMAD,AWI/USIABP,MOSAiC,North
2020-07-07T10:30:00Z,1594117800,2020,10,30,189.4375,189.4375,79.35235,4.83238,-999.00,-999.00,-999.0,no,no,no,300534060555870,NOMAD,AWI/USIABP,MOSAiC,North
2020-07-07T10:39:56Z,1594118396,2020,10,40,189.4444,189.4444,79.35245,4.83152,-999.00,-999.00,-999.0,no,no,no,300534060555870,NOMAD,AWI/USIABP,MOSAiC,North
2020-07-07T10:50:00Z,1594119001,2020,10,50,189.4514,189.4514,79.35242,4.83155,-999.00,-999.00,-999.0,no,no,no,300534060555870,NOMAD,AWI/USIABP,MOSAiC,North
2020-07-07T10:59:57Z,1594119597,2020,11,0,189.4583,189.4583,79.35215,4.8333,-999.00,-999.00,-999.0,no,no,no,300534060555870,NOMAD,AWI/USIABP,MOSAiC,North
2020-07-07T11:10:01Z,1594120202,2020,11,10,189.4653,189.4653,79.36245,4.88112,-999.00,-999.00,-999.0,no,no,no,300534060555870,NOMAD,AWI/USIABP,MOSAiC,North
2020-07-07T11:19:58Z,1594120798,2020,11,20,189.4722,189.4722,79.37729,4.95618,-999.00,-999.00,-999.0,no,no,no,300534060555870,NOMAD,AWI/USIABP,MOSAiC,North
2020-07-07T11:30:02Z,1594121403,2020,11,30,189.4792,189.4792,79.37876,4.9621,-999.00,-999.00,-999.0,no,no,no,300534060555870,NOMAD,AWI/USIABP,MOSAiC,North
2020-07-07T11:39:59Z,1594121999,2020,11,40,189.4861,189.4861,79.37854,4.9626,-999.00,-999.00,-999.0,no,no,no,300534060555870,NOMAD,AWI/USIABP,MOSAiC,North
2020-07-07T11:50:03Z,1594122604,2020,11,50,189.4931,189.4931,79.37866,4.96233,-999.00,-999.00,-999.0,no,no,no,300534060555870,NOMAD,AWI/USIABP,MOSAiC,North
2020-07-07T12:00:00Z,1594123200,2020,12,0,189.5,189.5,79.37842,4.96258,-999.00,-999.00,-999.0,no,no,no,300534060555870,NOMAD,AWI/USIABP,MOSAiC,North
2020-07-07T12:09:56Z,1594123796,2020,12,10,189.5069,189.5069,79.37816,4.96351,-999.00,-999.00,-999.0,no,no,no,300534060555870,NOMAD,AWI/USIABP,MOSAiC,North
2020-07-07T12:20:00Z,1594124401,2020,12,20,189.5139,189.5139,79.37846,4.96299,-999.00,-999.00,-999.0,no,no,no,300534060555870,NOMAD,AWI/USIABP,MOSAiC,North
2020-07-07T12:29:57Z,1594124997,2020,12,30,189.5208,189.5208,79.38736,5.00863,-999.00,-999.00,-999.0,no,no,no,300534060555870,NOMAD,AWI/USIABP,MOSAiC,North
2020-07-07T12:40:01Z,1594125602,2020,12,40,189.5278,189.5278,79.40365,5.08983,-999.00,-999.00,-999.0,no,no,no,300534060555870,NOMAD,AWI/USIABP,MOSAiC,North
2020-07-07T12:49:58Z,1594126198,2020,12,50,189.5347,189.5347,79.40457,5.09504,-999.00,-999.00,-999.0,no,no,no,300534060555870,NOMAD,AWI/USIABP,MOSAiC,North
2020-07-07T13:00:02Z,1594126803,2020,13,0,189.5417,189.5417,79.40449,5.09466,-999.00,-999.00,-999.0,no,no,no,300534060555870,NOMAD,AWI/USIABP,MOSAiC,North
2020-07-07T13:09:59Z,1594127399,2020,13,10,189.5486,189.5486,79.4045,5.09538,-999.00,-999.00,-999.0,no,no,no,300534060555870,NOMAD,AWI/USIABP,MOSAiC,North
2020-07-07T13:20:03Z,1594128004,2020,13,20,189.5556,189.5556,79.4044,5.09636,-999.00,-999.00,-999.0,no,no,no,300534060555870,NOMAD,AWI/USIABP,MOSAiC,North
2020-07-07T13:30:00Z,1594128600,2020,13,30,189.5625,189.5625,79.40446,5.09632,-999.00,-999.00,-999.0,no,no,no,300534060555870,NOMAD,AWI/USIABP,MOSAiC,North
2020-07-07T13:39:56Z,1594129196,2020,13,40,189.5694,189.5694,79.40449,5.09629,-999.00,-999.00,-999.0,no,no,no,300534060555870,NOMAD,AWI/USIABP,MOSAiC,North
2020-07-07T13:50:00Z,1594129801,2020,13,50,189.5764,189.5764,79.40465,5.09606,-999.00,-999.00,-999.0,no,no,no,300534060555870,NOMAD,AWI/USIABP,MOSAiC,North
2020-07-07T13:59:57Z,1594130397,2020,14,0,189.5833,189.5833,79.40644,5.10417,-999.00,-999.00,-999.0,no,no,no,300534060555870,NOMAD,AWI/USIABP,MOSAiC,North
2020-07-07T14:10:01Z,1594131002,2020,14,10,189.5903,189.5903,79.41298,5.13274,-999.00,-999.00,-999.0,no,no,no,300534060555870,NOMAD,AWI/USIABP,MOSAiC,North
2020-07-07T14:19:58Z,1594131598,2020,14,20,189.5972,189.5972,79.4206,5.16749,-999.00,-999.00,-999.0,no,no,no,300534060555870,NOMAD,AWI/USIABP,MOSAiC,North
2020-07-07T14:30:02Z,1594132203,2020,14,30,189.6042,189.6042,79.42749,5.19731,-999.00,-999.00,-999.0,no,no,no,300534060555870,NOMAD,AWI/USIABP,MOSAiC,North
2020-07-07T14:39:59Z,1594132799,2020,14,40,189.6111,189.6111,79.43904,5.24744,-999.00,-999.00,-999.0,no,no,no,300534060555870,NOMAD,AWI/USIABP,MOSAiC,North
2020-07-07T14:50:03Z,1594133404,2020,14,50,189.6181,189.6181,79.44528,5.28057,-999.00,-999.00,-999.0,no,no,no,300534060555870,NOMAD,AWI/USIABP,MOSAiC,North
2020-07-07T15:00:00Z,1594134000,2020,15,0,189.625,189.625,79.44741,5.29167,-999.00,-999.00,-999.0,no,no,no,300534060555870,NOMAD,AWI/USIABP,MOSAiC,North
2020-07-07T15:09:56Z,1594134596,2020,15,10,189.6319,189.6319,79.45215,5.30704,-999.00,-999.00,-999.0,no,no,no,300534060555870,NOMAD,AWI/USIABP,MOSAiC,North
2020-07-07T15:20:00Z,1594135201,2020,15,20,189.6389,189.6389,79.44959,5.37016,-999.00,-999.00,-999.0,no,no,no,300534060555870,NOMAD,AWI/USIABP,MOSAiC,North
2020-07-07T15:29:57Z,1594135797,2020,15,30,189.6458,189.6458,79.428,5.2852,-999.00,-999.00,-999.0,no,no,no,300534060555870,NOMAD,AWI/USIABP,MOSAiC,North
2020-07-07T15:40:01Z,1594136402,2020,15,40,189.6528,189.6528,79.40496,5.19017,-999.00,-999.00,-999.0,no,no,no,300534060555870,NOMAD,AWI/USIABP,MOSAiC,North
2020-07-07T15:49:58Z,1594136998,2020,15,50,189.6597,189.6597,79.39585,5.07193,-999.00,-999.00,-999.0,no,no,no,300534060555870,NOMAD,AWI/USIABP,MOSAiC,North
2020-07-07T16:00:02Z,1594137603,2020,16,0,189.6667,189.6667,79.41322,5.14299,-999.00,-999.00,-999.0,no,no,no,300534060555870,NOMAD,AWI/USIABP,MOSAiC,North
2020-07-07T16:09:59Z,1594138199,2020,16,10,189.6736,189.6736,79.41303,5.14207,-999.00,-999.00,-999.0,no,no,no,300534060555870,NOMAD,AWI/USIABP,MOSAiC,North
2020-07-07T16:20:03Z,1594138804,2020,16,20,189.6806,189.6806,79.41303,5.14207,-999.00,-999.00,-999.0,no,no,no,300534060555870,NOMAD,AWI/USIABP,MOSAiC,North
2020-07-07T16:30:00Z,1594139400,2020,16,30,189.6875,189.6875,79.41303,5.14207,-999.00,-999.00,-999.0,no,no,no,300534060555870,NOMAD,AWI/USIABP,MOSAiC,North
2020-07-07T16:39:56Z,1594139996,2020,16,40,189.6944,189.6944,79.41303,5.14207,-999.00,-999.00,-999.0,no,no,no,300534060555870,NOMAD,AWI/USIABP,MOSAiC,North
2020-07-07T16:50:00Z,1594140601,2020,16,50,189.7014,189.7014,79.41303,5.14207,-999.00,-999.00,-999.0,no,no,no,300534060555870,NOMAD,AWI/USIABP,MOSAiC,North
2020-07-07T16:59:57Z,1594141197,2020,17,0,189.7083,189.7083,79.41303,5.14207,-999.00,-999.00,-999.0,no,no,no,300534060555870,NOMAD,AWI/USIABP,MOSAiC,North
2020-07-07T17:10:01Z,1594141802,2020,17,10,189.7153,189.7153,79.41303,5.14207,-999.00,-999.00,-999.0,no,no,no,300534060555870,NOMAD,AWI/USIABP,MOSAiC,North
2020-07-07T17:19:58Z,1594142398,2020,17,20,189.7222,189.7222,79.41303,5.14207,-999.00,-999.00,-999.0,no,no,no,300534060555870,NOMAD,AWI/USIABP,MOSAiC,North
2020-07-07T17:30:02Z,1594143003,2020,17,30,189.7292,189.7292,79.41303,5.14207,-999.00,-999.00,-999.0,no,no,no,300534060555870,NOMAD,AWI/USIABP,MOSAiC,North
2020-07-07T17:39:59Z,1594143599,2020,17,40,189.7361,189.7361,79.41303,5.14207,-999.00,-999.00,-999.0,no,no,no,300534060555870,NOMAD,AWI/USIABP,MOSAiC,North
2020-07-07T17:50:03Z,1594144204,2020,17,50,189.7431,189.7431,79.41303,5.14207,-999.00,-999.00,-999.0,no,no,no,300534060555870,NOMAD,AWI/USIABP,MOSAiC,North
2020-07-12T22:30:00Z,1594593000,2020,22,30,194.9375,194.9375,79.41825,3.36567,-999.00,-999.00,-999.0,no,no,no,300534060555870,NOMAD,AWI/USIABP,MOSAiC,North
2020-07-12T22:39:56Z,1594593596,2020,22,40,194.9444,194.9444,79.41806,3.3682,-999.00,-999.00,-999.0,no,no,no,300534060555870,NOMAD,AWI/USIABP,MOSAiC,North
2020-07-12T22:50:00Z,1594594201,2020,22,50,194.9514,194.9514,79.4153,3.38426,-999.00,-999.00,-999.0,no,no,no,300534060555870,NOMAD,AWI/USIABP,MOSAiC,North
2020-07-12T22:59:57Z,1594594797,2020,23,0,194.9583,194.9583,79.41535,3.38439,-999.00,-999.00,-999.0,no,no,no,300534060555870,NOMAD,AWI/USIABP,MOSAiC,North
2020-07-12T23:10:01Z,1594595402,2020,23,10,194.9653,194.9653,79.41536,3.38398,-999.00,-999.00,-999.0,no,no,no,300534060555870,NOMAD,AWI/USIABP,MOSAiC,North
2020-07-12T23:19:58Z,1594595998,2020,23,20,194.9722,194.9722,79.41534,3.38439,-999.00,-999.00,-999.0,no,no,no,300534060555870,NOMAD,AWI/USIABP,MOSAiC,North
2020-07-12T23:30:02Z,1594596603,2020,23,30,194.9792,194.9792,79.41529,3.38385,-999.00,-999.00,-999.0,no,no,no,300534060555870,NOMAD,AWI/USIABP,MOSAiC,North
2020-07-12T23:39:59Z,1594597199,2020,23,40,194.9861,194.9861,79.41534,3.3848,-999.00,-999.00,-999.0,no,no,no,300534060555870,NOMAD,AWI/USIABP,MOSAiC,North
2020-07-12T23:50:03Z,1594597804,2020,23,50,194.9931,194.9931,79.41527,3.38404,-999.00,-999.00,-999.0,no,no,no,300534060555870,NOMAD,AWI/USIABP,MOSAiC,North
2020-07-13T00:00:00Z,1594598400,2020,0,0,195.0,195.0,79.41391,3.39121,-999.00,-999.00,-999.0,no,no,no,300534060555870,NOMAD,AWI/USIABP,MOSAiC,North
2020-07-13T00:09:56Z,1594598996,2020,0,10,195.0069,195.0069,79.41234,3.40158,-999.00,-999.00,-999.0,no,no,no,300534060555870,NOMAD,AWI/USIABP,MOSAiC,North
2020-07-13T00:20:00Z,1594599601,2020,0,20,195.0139,195.0139,79.41225,3.4022,-999.00,-999.00,-999.0,no,no,no,300534060555870,NOMAD,AWI/USIABP,MOSAiC,North
2020-07-13T00:29:57Z,1594600197,2020,0,30,195.0208,195.0208,79.41215,3.40212,-999.00,-999.00,-999.0,no,no,no,300534060555870,NOMAD,AWI/USIABP,MOSAiC,North
2020-07-13T00:40:01Z,1594600802,2020,0,40,195.0278,195.0278,79.41229,3.40196,-999.00,-999.00,-999.0,no,no,no,300534060555870,NOMAD,AWI/USIABP,MOSAiC,North
2020-07-13T00:49:58Z,1594601398,2020,0,50,195.0347,195.0347,79.41223,3.40145,-999.00,-999.00,-999.0,no,no,no,300534060555870,NOMAD,AWI/USIABP,MOSAiC,North
2020-07-13T01:00:02Z,1594602003,2020,1,0,195.0417,195.0417,79.41229,3.4024,-999.00,-999.00,-999.0,no,no,no,300534060555870,NOMAD,AWI/USIABP,MOSAiC,North
2020-07-13T01:09:59Z,1594602599,2020,1,10,195.0486,195.0486,79.4122,3.40157,-999.00,-999.00,-999.0,no,no,no,300534060555870,NOMAD,AWI/USIABP,MOSAiC,North
2020-07-13T01:20:03Z,1594603204,2020,1,20,195.0556,195.0556,79.41258,3.35776,-999.00,-999.00,-999.0,no,no,no,300534060555870,NOMAD,AWI/USIABP,MOSAiC,North
2020-07-13T01:30:00Z,1594603800,2020,1,30,195.0625,195.0625,79.42552,3.21787,-999.00,-999.00,-999.0,no,no,no,300534060555870,NOMAD,AWI/USIABP,MOSAiC,North
2020-07-13T01:39:56Z,1594604396,2020,1,40,195.0694,195.0694,79.43012,3.09918,-999.00,-999.00,-999.0,no,no,no,300534060555870,NOMAD,AWI/USIABP,MOSAiC,North
2020-07-13T01:50:00Z,1594605001,2020,1,50,195.0764,195.0764,79.41814,3.16239,-999.00,-999.00,-999.0,no,no,no,300534060555870,NOMAD,AWI/USIABP,MOSAiC,North
2020-07-13T01:59:57Z,1594605597,2020,2,0,195.0833,195.0833,79.40649,3.22823,-999.00,-999.00,-999.0,no,no,no,300534060555870,NOMAD,AWI/USIABP,MOSAiC,North
2020-07-13T02:10:01Z,1594606202,2020,2,10,195.0903,195.0903,79.39532,3.29436,-999.00,-999.00,-999.0,no,no,no,300534060555870,NOMAD,AWI/USIABP,MOSAiC,North
2020-07-13T02:19:58Z,1594606798,2020,2,20,195.0972,195.0972,79.384,3.35943,-999.00,-999.00,-999.0,no,no,no,300534060555870,NOMAD,AWI/USIABP,MOSAiC,North
2020-07-13T02:30:02Z,1594607403,2020,2,30,195.1042,195.1042,79.37303,3.42477,-999.00,-999.00,-999.0,no,no,no,300534060555870,NOMAD,AWI/USIABP,MOSAiC,North
2020-07-13T02:39:59Z,1594607999,2020,2,40,195.1111,195.1111,79.36179,3.48965,-999.00,-999.00,-999.0,no,no,no,300534060555870,NOMAD,AWI/USIABP,MOSAiC,North
2020-07-13T02:50:03Z,1594608604,2020,2,50,195.1181,195.1181,79.36618,3.56639,-999.00,-999.00,-999.0,no,no,no,300534060555870,NOMAD,AWI/USIABP,MOSAiC,North
2020-07-13T03:00:00Z,1594609200,2020,3,0,195.125,195.125,79.38028,3.6379,-999.00,-999.00,-999.0,no,no,no,300534060555870,NOMAD,AWI/USIABP,MOSAiC,North
2020-07-13T03:09:56Z,1594609796,2020,3,10,195.1319,195.1319,79.39384,3.58979,-999.00,-999.00,-999.0,no,no,no,300534060555870,NOMAD,AWI/USIABP,MOSAiC,North
2020-07-13T03:20:00Z,1594610401,2020,3,20,195.1389,195.1389,79.40484,3.52477,-999.00,-999.00,-999.0,no,no,no,300534060555870,NOMAD,AWI/USIABP,MOSAiC,North
2020-07-13T03:29:57Z,1594610997,2020,3,30,195.1458,195.1458,79.41601,3.45972,-999.00,-999.00,-999.0,no,no,no,300534060555870,NOMAD,AWI/USIABP,MOSAiC,North
2020-07-13T03:40:01Z,1594611602,2020,3,40,195.1528,195.1528,79.42727,3.3925,-999.00,-999.00,-999.0,no,no,no,300534060555870,NOMAD,AWI/USIABP,MOSAiC,North
2020-07-13T03:49:58Z,1594612198,2020,3,50,195.1597,195.1597,79.43859,3.32681,-999.00,-999.00,-999.0,no,no,no,300534060555870,NOMAD,AWI/USIABP,MOSAiC,North
2020-07-13T04:00:02Z,1594612803,2020,4,0,195.1667,195.1667,79.45001,3.26023,-999.00,-999.00,-999.0,no,no,no,300534060555870,NOMAD,AWI/USIABP,MOSAiC,North
2020-07-13T04:09:59Z,1594613399,2020,4,10,195.1736,195.1736,79.46265,3.25536,-999.00,-999.00,-999.0,no,no,no,300534060555870,NOMAD,AWI/USIABP,MOSAiC,North
2020-07-13T04:20:03Z,1594614004,2020,4,20,195.1806,195.1806,79.47668,3.32737,-999.00,-999.00,-999.0,no,no,no,300534060555870,NOMAD,AWI/USIABP,MOSAiC,North
2020-07-13T04:30:00Z,1594614600,2020,4,30,195.1875,195.1875,79.47488,3.39996,-999.00,-999.00,-999.0,no,no,no,300534060555870,NOMAD,AWI/USIABP,MOSAiC,North
2020-07-13T04:39:56Z,1594615196,2020,4,40,195.1944,195.1944,79.46377,3.46589,-999.00,-999.00,-999.0,no,no,no,300534060555870,NOMAD,AWI/USIABP,MOSAiC,North
2020-07-13T04:50:00Z,1594615801,2020,4,50,195.2014,195.2014,79.45253,3.53169,-999.00,-999.00,-999.0,no,no,no,300534060555870,NOMAD,AWI/USIABP,MOSAiC,North
2020-07-13T04:59:57Z,1594616397,2020,5,0,195.2083,195.2083,79.44112,3.59744,-999.00,-999.00,-999.0,no,no,no,300534060555870,NOMAD,AWI/USIABP,MOSAiC,North
2020-07-13T05:10:01Z,1594617002,2020,5,10,195.2153,195.2153,79.42984,3.66391,-999.00,-999.00,-999.0,no,no,no,300534060555870,NOMAD,AWI/USIABP,MOSAiC,North
2020-07-13T05:19:58Z,1594617598,2020,5,20,195.2222,195.2222,79.41844,3.72956,-999.00,-999.00,-999.0,no,no,no,300534060555870,NOMAD,AWI/USIABP,MOSAiC,North
2020-07-13T05:30:02Z,1594618203,2020,5,30,195.2292,195.2292,79.41532,3.80387,-999.00,-999.00,-999.0,no,no,no,300534060555870,NOMAD,AWI/USIABP,MOSAiC,North
2020-07-13T05:39:59Z,1594618799,2020,5,40,195.2361,195.2361,79.43279,3.8929,-999.00,-999.00,-999.0,no,no,no,300534060555870,NOMAD,AWI/USIABP,MOSAiC,North
2020-07-13T05:50:03Z,1594619404,2020,5,50,195.2431,195.2431,79.44707,3.85458,-999.00,-999.00,-999.0,no,no,no,300534060555870,NOMAD,AWI/USIABP,MOSAiC,North
2020-07-13T06:00:00Z,1594620000,2020,6,0,195.25,195.25,79.45827,3.78486,-999.00,-999.00,-999.0,no,no,no,300534060555870,NOMAD,AWI/USIABP,MOSAiC,North
2020-07-13T06:09:56Z,1594620596,2020,6,10,195.2569,195.2569,79.46964,3.71864,-999.00,-999.00,-999.0,no,no,no,300534060555870,NOMAD,AWI/USIABP,MOSAiC,North
2020-07-13T06:20:00Z,1594621201,2020,6,20,195.2639,195.2639,79.48101,3.65251,-999.00,-999.00,-999.0,no,no,no,300534060555870,NOMAD,AWI/USIABP,MOSAiC,North
2020-07-13T06:29:57Z,1594621797,2020,6,30,195.2708,195.2708,79.49237,3.5846,-999.00,-999.00,-999.0,no,no,no,300534060555870,NOMAD,AWI/USIABP,MOSAiC,North
2020-07-13T06:40:01Z,1594622402,2020,6,40,195.2778,195.2778,79.50353,3.51729,-999.00,-999.00,-999.0,no,no,no,300534060555870,NOMAD,AWI/USIABP,MOSAiC,North
2020-07-13T06:49:58Z,1594622998,2020,6,50,195.2847,195.2847,79.51476,3.45187,-999.00,-999.00,-999.0,no,no,no,300534060555870,NOMAD,AWI/USIABP,MOSAiC,North
2020-07-13T07:00:02Z,1594623603,2020,7,0,195.2917,195.2917,79.52604,3.38457,-999.00,-999.00,-999.0,no,no,no,300534060555870,NOMAD,AWI/USIABP,MOSAiC,North
2020-07-13T07:09:59Z,1594624199,2020,7,10,195.2986,195.2986,79.53741,3.31778,-999.00,-999.00,-999.0,no,no,no,300534060555870,NOMAD,AWI/USIABP,MOSAiC,North
2020-07-13T07:20:03Z,1594624804,2020,7,20,195.3056,195.3056,79.54878,3.25067,-999.00,-999.00,-999.0,no,no,no,300534060555870,NOMAD,AWI/USIABP,MOSAiC,North
2020-07-13T07:30:00Z,1594625400,2020,7,30,195.3125,195.3125,79.56001,3.18477,-999.00,-999.00,-999.0,no,no,no,300534060555870,NOMAD,AWI/USIABP,MOSAiC,North
2020-07-13T07:39:56Z,1594625996,2020,7,40,195.3194,195.3194,79.56154,3.12418,-999.00,-999.00,-999.0,no,no,no,300534060555870,NOMAD,AWI/USIABP,MOSAiC,North
2020-07-13T07:50:00Z,1594626601,2020,7,50,195.3264,195.3264,79.54109,3.22089,-999.00,-999.00,-999.0,no,no,no,300534060555870,NOMAD,AWI/USIABP,MOSAiC,North
2020-07-13T07:59:57Z,1594627197,2020,8,0,195.3333,195.3333,79.51654,3.33472,-999.00,-999.00,-999.0,no,no,no,300534060555870,NOMAD,AWI/USIABP,MOSAiC,North
2020-07-13T08:10:01Z,1594627802,2020,8,10,195.3403,195.3403,79.50125,3.42949,-999.00,-999.00,-999.0,no,no,no,300534060555870,NOMAD,AWI/USIABP,MOSAiC,North
2020-07-13T08:19:58Z,1594628398,2020,8,20,195.3472,195.3472,79.50026,3.43528,-999.00,-999.00,-999.0,no,no,no,300534060555870,NOMAD,AWI/USIABP,MOSAiC,North
2020-07-13T08:30:02Z,1594629003,2020,8,30,195.3542,195.3542,79.50026,3.43499,-999.00,-999.00,-999.0,no,no,no,300534060555870,NOMAD,AWI/USIABP,MOSAiC,North
2020-07-13T08:39:59Z,1594629599,2020,8,40,195.3611,195.3611,79.50023,3.43502,-999.00,-999.00,-999.0,no,no,no,300534060555870,NOMAD,AWI/USIABP,MOSAiC,North
2020-07-13T08:50:03Z,1594630204,2020,8,50,195.3681,195.3681,79.50028,3.43535,-999.00,-999.00,-999.0,no,no,no,300534060555870,NOMAD,AWI/USIABP,MOSAiC,North
2020-07-13T09:00:00Z,1594630800,2020,9,0,195.375,195.375,79.50028,3.43528,-999.00,-999.00,-999.0,no,no,no,300534060555870,NOMAD,AWI/USIABP,MOSAiC,North
2020-07-13T09:09:56Z,1594631396,2020,9,10,195.3819,195.3819,79.49991,3.4372,-999.00,-999.00,-999.0,no,no,no,300534060555870,NOMAD,AWI/USIABP,MOSAiC,North
2020-07-13T09:20:00Z,1594632001,2020,9,20,195.3889,195.3889,79.50852,3.43756,-999.00,-999.00,-999.0,no,no,no,300534060555870,NOMAD,AWI/USIABP,MOSAiC,North
2020-07-13T09:29:57Z,1594632597,2020,9,30,195.3958,195.3958,79.51882,3.43737,-999.00,-999.00,-999.0,no,no,no,300534060555870,NOMAD,AWI/USIABP,MOSAiC,North
2020-07-13T09:40:01Z,1594633202,2020,9,40,195.4028,195.4028,79.52561,3.46613,-999.00,-999.00,-999.0,no,no,no,300534060555870,NOMAD,AWI/USIABP,MOSAiC,North
2020-07-13T09:49:58Z,1594633798,2020,9,50,195.4097,195.4097,79.52499,3.52773,-999.00,-999.00,-999.0,no,no,no,300534060555870,NOMAD,AWI/USIABP,MOSAiC,North
2020-07-13T10:00:02Z,1594634403,2020,10,0,195.4167,195.4167,79.51339,3.53479,-999.00,-999.00,-999.0,no,no,no,300534060555870,NOMAD,AWI/USIABP,MOSAiC,North
2020-07-13T10:09:59Z,1594634999,2020,10,10,195.4236,195.4236,79.50271,3.53535,-999.00,-999.00,-999.0,no,no,no,300534060555870,NOMAD,AWI/USIABP,MOSAiC,North
2020-07-13T10:20:03Z,1594635604,2020,10,20,195.4306,195.4306,79.49999,3.53431,-999.00,-999.00,-999.0,no,no,no,300534060555870,NOMAD,AWI/USIABP,MOSAiC,North
2020-07-13T10:30:00Z,1594636200,2020,10,30,195.4375,195.4375,79.49998,3.53436,-999.00,-999.00,-999.0,no,no,no,300534060555870,NOMAD,AWI/USIABP,MOSAiC,North
2020-07-13T10:39:56Z,1594636796,2020,10,40,195.4444,195.4444,79.50004,3.53353,-999.00,-999.00,-999.0,no,no,no,300534060555870,NOMAD,AWI/USIABP,MOSAiC,North
2020-07-13T10:50:00Z,1594637401,2020,10,50,195.4514,195.4514,79.5,3.53395,-999.00,-999.00,-999.0,no,no,no,300534060555870,NOMAD,AWI/USIABP,MOSAiC,North
2020-07-13T10:59:57Z,1594637997,2020,11,0,195.4583,195.4583,79.49999,3.53378,-999.00,-999.00,-999.0,no,no,no,300534060555870,NOMAD,AWI/USIABP,MOSAiC,North
2020-07-13T11:10:01Z,1594638602,2020,11,10,195.4653,195.4653,79.5001,3.53432,-999.00,-999.00,-999.0,no,no,no,300534060555870,NOMAD,AWI/USIABP,MOSAiC,North
2020-07-13T11:19:58Z,1594639198,2020,11,20,195.4722,195.4722,79.50001,3.53368,-999.00,-999.00,-999.0,no,no,no,300534060555870,NOMAD,AWI/USIABP,MOSAiC,North
2020-07-13T11:30:02Z,1594639803,2020,11,30,195.4792,195.4792,79.50006,3.53379,-999.00,-999.00,-999.0,no,no,no,300534060555870,NOMAD,AWI/USIABP,MOSAiC,North
2020-07-13T11:39:59Z,1594640399,2020,11,40,195.4861,195.4861,79.50006,3.5336,-999.00,-999.00,-999.0,no,no,no,300534060555870,NOMAD,AWI/USIABP,MOSAiC,North
2020-07-13T11:50:03Z,1594641004,2020,11,50,195.4931,195.4931,79.5,3.5333,-999.00,-999.00,-999.0,no,no,no,300534060555870,NOMAD,AWI/USIABP,MOSAiC,North
2020-07-13T12:00:00Z,1594641600,2020,12,0,195.5,195.5,79.50003,3.53378,-999.00,-999.00,-999.0,no,no,no,300534060555870,NOMAD,AWI/USIABP,MOSAiC,North
2020-07-13T12:09:56Z,1594642196,2020,12,10,195.5069,195.5069,79.50003,3.53386,-999.00,-999.00,-999.0,no,no,no,300534060555870,NOMAD,AWI/USIABP,MOSAiC,North
2020-07-13T12:20:00Z,1594642801,2020,12,20,195.5139,195.5139,79.50005,3.53377,-999.00,-999.00,-999.0,no,no,no,300534060555870,NOMAD,AWI/USIABP,MOSAiC,North
2020-07-13T12:29:57Z,1594643397,2020,12,30,195.5208,195.5208,79.50002,3.53383,-999.00,-999.00,-999.0,no,no,no,300534060555870,NOMAD,AWI/USIABP,MOSAiC,North
2020-07-13T12:40:01Z,1594644002,2020,12,40,195.5278,195.5278,79.49366,3.53421,-999.00,-999.00,-999.0,no,no,no,300534060555870,NOMAD,AWI/USIABP,MOSAiC,North
2020-07-13T12:49:58Z,1594644598,2020,12,50,195.5347,195.5347,79.48187,3.53464,-999.00,-999.00,-999.0,no,no,no,300534060555870,NOMAD,AWI/USIABP,MOSAiC,North
2020-07-13T13:00:02Z,1594645203,2020,13,0,195.5417,195.5417,79.47445,3.55976,-999.00,-999.00,-999.0,no,no,no,300534060555870,NOMAD,AWI/USIABP,MOSAiC,North
2020-07-13T13:09:59Z,1594645799,2020,13,10,195.5486,195.5486,79.4745,3.62269,-999.00,-999.00,-999.0,no,no,no,300534060555870,NOMAD,AWI/USIABP,MOSAiC,North
2020-07-13T13:20:03Z,1594646404,2020,13,20,195.5556,195.5556,79.4848,3.63306,-999.00,-999.00,-999.0,no,no,no,300534060555870,NOMAD,AWI/USIABP,MOSAiC,North
2020-07-13T13:30:00Z,1594647000,2020,13,30,195.5625,195.5625,79.49491,3.63342,-999.00,-999.00,-999.0,no,no,no,300534060555870,NOMAD,AWI/USIABP,MOSAiC,North
2020-07-13T13:39:56Z,1594647596,2020,13,40,195.5694,195.5694,79.49967,3.63387,-999.00,-999.00,-999.0,no,no,no,300534060555870,NOMAD,AWI/USIABP,MOSAiC,North
2020-07-13T13:50:00Z,1594648201,2020,13,50,195.5764,195.5764,79.49962,3.63375,-999.00,-999.00,-999.0,no,no,no,300534060555870,NOMAD,AWI/USIABP,MOSAiC,North
2020-07-13T13:59:57Z,1594648797,2020,14,0,195.5833,195.5833,79.4997,3.63369,-999.00,-999.00,-999.0,no,no,no,300534060555870,NOMAD,AWI/USIABP,MOSAiC,North
2020-07-13T14:10:01Z,1594649402,2020,14,10,195.5903,195.5903,79.49972,3.63353,-999.00,-999.00,-999.0,no,no,no,300534060555870,NOMAD,AWI/USIABP,MOSAiC,North
2020-07-13T14:19:58Z,1594649998,2020,14,20,195.5972,195.5972,79.49969,3.63334,-999.00,-999.00,-999.0,no,no,no,300534060555870,NOMAD,AWI/USIABP,MOSAiC,North
2020-07-13T14:30:02Z,1594650603,2020,14,30,195.6042,195.6042,79.49971,3.63296,-999.00,-999.00,-999.0,no,no,no,300534060555870,NOMAD,AWI/USIABP,MOSAiC,North
2020-07-13T14:39:59Z,1594651199,2020,14,40,195.6111,195.6111,79.49974,3.6335,-999.00,-999.00,-999.0,no,no,no,300534060555870,NOMAD,AWI/USIABP,MOSAiC,North
2020-07-13T14:50:03Z,1594651804,2020,14,50,195.6181,195.6181,79.49972,3.63336,-999.00,-999.00,-999.0,no,no,no,300534060555870,NOMAD,AWI/USIABP,MOSAiC,North
2020-07-13T15:00:00Z,1594652400,2020,15,0,195.625,195.625,79.49967,3.63349,-999.00,-999.00,-999.0,no,no,no,300534060555870,NOMAD,AWI/USIABP,MOSAiC,North
2020-07-13T15:09:56Z,1594652996,2020,15,10,195.6319,195.6319,79.49962,3.63316,-999.00,-999.00,-999.0,no,no,no,300534060555870,NOMAD,AWI/USIABP,MOSAiC,North
2020-07-13T15:20:00Z,1594653601,2020,15,20,195.6389,195.6389,79.49971,3.63291,-999.00,-999.00,-999.0,no,no,no,300534060555870,NOMAD,AWI/USIABP,MOSAiC,North
2020-07-13T15:29:57Z,1594654197,2020,15,30,195.6458,195.6458,79.49966,3.63316,-999.00,-999.00,-999.0,no,no,no,300534060555870,NOMAD,AWI/USIABP,MOSAiC,North
2020-07-13T15:40:01Z,1594654802,2020,15,40,195.6528,195.6528,79.49969,3.63276,-999.00,-999.00,-999.0,no,no,no,300534060555870,NOMAD,AWI/USIABP,MOSAiC,North